Regional Weather Roundup
Issued by NWS

Home | Current Version | Previous Version | Text Only | Print | Product List | Glossary Off
Versions: 1 2 3 4 5 6 7 8 9 10 11 12 13 14 15 16 17 18 19 20 21 22 23 24 25 26 27 28 29 30 31 32 33 34 35 36 37 38 39 40 41 42 43 44 45 46 47 48 49 50

000
ASUS43 KLSX 261359
RWRMO

WEATHER SUMMARY FOR MISSOURI
NATIONAL WEATHER SERVICE SPRINGFIELD MO
900 AM CDT SUN APR 26 2015

NOTE: "FAIR" INDICATES FEW OR NO CLOUDS BELOW 12,000 FEET WITH NO
       SIGNIFICANT WEATHER AND/OR OBSTRUCTIONS TO VISIBILITY.
       CURRENT SKY AND/OR WEATHER CONDITIONS ARE NOT AVAILABLE FOR
       CHILLICOTHE AND FARMINGTON.

MOZ001>031-035>038-043-044-053-054-261500-
...NORTHERN AND WESTERN MISSOURI...

CITY           SKY/WX    TMP DP  RH WIND       PRES   REMARKS
KANSAS CTY INT CLOUDY    48  43  82 NE14      29.96R
KANSAS C DTWN  CLOUDY    50  42  74 E14       29.96R
LEE`S SUMMIT   CLOUDY    47  42  83 NE13      29.95R
ST JOSEPH      CLOUDY    48  42  80 NE12      29.99R HAZE
CHILLICOTHE      N/A     49  40  71 NE8       30.00R
KIRKSVILLE     CLOUDY    47  37  68 E9        30.00R

$$
MOZ066>068-077>081-088>096-101>105-261500-
...SOUTHWEST MISSOURI...

CITY           SKY/WX    TMP DP  RH WIND       PRES   REMARKS
SPRINGFIELD    CLOUDY    52  47  83 NE12      29.87R
JOPLIN         CLOUDY    53  49  86 E10       29.88R

$$
MOZ032>034-039>042-045>050-055>058-069>072-261500-
...CENTRAL MISSOURI...

CITY           SKY/WX    TMP DP  RH WIND       PRES   REMARKS
COLUMBIA       CLOUDY    47  43  86 NE12      29.95R FOG
JEFFERSON CITY CLOUDY    48  43  82 NE10      29.95R HAZE
ROLLA          CLOUDY    45  44  97 NE10      29.90R FOG
SEDALIA        CLOUDY    49  44  83 NE8       29.96R
WHITEMAN AFB   CLOUDY    48  45  89 NE12      29.94R FOG
OSAGE BEACH    CLOUDY    48  43  81 NE7       29.93R

$$
MOZ051-052-059>065-261500-
...EAST CENTRAL MISSOURI...

CITY           SKY/WX    TMP DP  RH WIND       PRES   REMARKS
ST LOUIS INTL  MOSUNNY   51  40  65 NE9       29.94R
SPIRIT OF STL  MOSUNNY   50  41  71 N10       29.93R
ST CHARLES     SUNNY     50  38  63 NE14      29.94R

$$
MOZ072>076-082>087-097>100-106>115-261500-
...SOUTH CENTRAL AND SOUTHEAST MISSOURI...

CITY           SKY/WX    TMP DP  RH WIND       PRES   REMARKS
CAPE GIRARDEAU CLOUDY    50  47  89 N13       29.87R
FARMINGTON     CLOUDY    46  45  93 N7        29.93R
POPLAR BLUFF   CLOUDY    52  45  77 N14       29.85R
WEST PLAINS    CLOUDY    50  45  83 N13       29.87S

$$



USA.gov is the U.S. government's official web portal to all federal, state and local government web resources and services.